Location: Saint Mary
(48.7436°N, 113.4291°W)
Time: 05:43:05
(UTC+00:00)

ARIANE 6 FM1 Upper Stage - Visible Passes

Search period start: 09 December 2025 00:00
Search period end: 19 December 2025 00:00
Orbit: 522 x 611 km, 62.0° (Epoch: 08 December)

Date Brightness Start Highest point End Pass type
(mag) Time Alt. Az. Time Alt. Az. Time Alt. Az.
09 Dec 5.5 00:30:31 10° WNW 00:33:38 22° WSW 00:36:45 10° S visible
09 Dec 6.1 14:34:19 10° SSE 14:36:38 15° ESE 14:38:58 10° E visible
10 Dec 6.0 00:31:32 10° W 00:33:55 15° WSW 00:36:19 10° SSW visible
10 Dec 5.7 14:33:50 10° S 14:36:56 21° ESE 14:39:59 10° ENE visible
11 Dec 6.7 00:33:22 10° WSW 00:34:10 10° WSW 00:34:57 10° SW visible
11 Dec 4.9 14:33:41 10° S 14:37:14 30° ESE 14:40:45 10° ENE visible
12 Dec 4.0 14:33:44 10° SSW 14:37:34 43° SE 14:41:22 10° NE visible
13 Dec 3.2 14:33:57 10° SSW 14:37:56 63° SE 14:41:53 10° NE visible
14 Dec 5.9 12:58:09 10° SE 12:59:53 12° ESE 13:01:36 10° E visible
14 Dec 2.6 14:34:17 10° SW 14:38:19 89° SE 14:42:19 10° NE visible
15 Dec 5.4 12:57:19 10° SSE 13:00:06 18° ESE 13:02:51 10° ENE visible
15 Dec 2.5 14:34:44 10° SW 14:38:44 66° NW 14:42:42 10° NE visible
16 Dec 4.8 12:56:59 10° S 13:00:20 25° ESE 13:03:40 10° ENE visible
16 Dec 2.8 14:35:16 10° WSW 14:39:11 48° NW 14:43:03 10° NE visible
17 Dec 4.1 12:56:53 10° SSW 13:00:37 36° SE 13:04:17 10° ENE visible
17 Dec 3.1 14:35:55 10° WSW 14:39:39 36° NW 14:43:21 10° NNE visible
18 Dec 3.3 12:58:50 25° SSW 13:00:54 52° SE 13:04:47 10° NE visible
18 Dec 3.5 14:36:37 10° W 14:40:09 29° NNW 14:43:38 10° NNE visible
